Orbital Elements at Epoch 2459200.5 (2020-Dec-17.0) TDB
Reference: JPL 25 (heliocentric ecliptic J2000)
Element | Value | Uncertainty (1-sigma) | Units |
e | .2139552448675308 | 4.2582e-08 | |
a | 2.230734154901633 | 6.3755e-09 | au |
q | 1.75345688255529 | 9.4097e-08 | au |
i | 6.419962581106081 | 5.7424e-06 | deg |
node | 7.912507005212031 | 2.8269e-05 | deg |
peri | 287.91121478978 | 3.2019e-05 | deg |
M | 177.2869963871942 | 1.6079e-05 | deg |
tp | 2458601.199646897254 (2019-Apr-27.69964690) | 5.3983e-05 | TDB |
period | 1216.942762377199 3.33 | 5.2171e-06 1.428e-08 | d yr |
n | .2958232803790781 | 1.2682e-09 | deg/d |
Q | 2.708011427247976 | 7.7396e-09 | au |
|
| | Orbit Determination Parameters
Additional Information
|